Overview Statistics Trail Chart Weather Telemetry Raw packets
 

This is the latest recevied weather packets stored in our database for station/object VE8SKI. If no packets are shown the sender has not sent any weather packets the latest 10 day(s).

<< 60 61 62 63 64 65 66 >>
Time Temp. Humidity Pressure Rain* Wind** Luminosity Snow
1777694480 3.33° C 78% 1015.9 hPa 0 mm 2.24 m/s, 14° - -
1777694181 3.89° C 77% 1015.8 hPa 0 mm 2.68 m/s, 13° - -
1777693878 3.89° C 77% 1015.7 hPa 0 mm 2.24 m/s, 23° - -
1777693579 3.89° C 76% 1015.5 hPa 0 mm 3.13 m/s, 8° - -
1777693284 3.89° C 76% 1015.4 hPa 0 mm 2.68 m/s, 35° - -
1777692980 3.89° C 76% 1015.2 hPa 0 mm 3.58 m/s, 32° - -
1777692680 4.44° C 75% 1015.1 hPa 0 mm 2.24 m/s, 52° - -
1777692381 4.44° C 74% 1014.9 hPa 0 mm 2.68 m/s, 46° - -
1777692078 4.44° C 74% 1014.7 hPa 0 mm 3.13 m/s, 20° - -
1777691779 5° C 73% 1014.6 hPa 0 mm 3.58 m/s, 38° - -
1777691479 5° C 72% 1014.5 hPa 0 mm 3.58 m/s, 31° - -
1777691180 5.56° C 72% 1014.4 hPa 0 mm 2.68 m/s, 23° - -
1777690880 5.56° C 73% 1014.2 hPa 0 mm 3.58 m/s, 24° - -
1777690580 5.56° C 73% 1014.1 hPa 0 mm 3.13 m/s, 14° - -
1777690278 5.56° C 72% 1013.9 hPa 0 mm 3.13 m/s, 34° - -
1777689978 5.56° C 72% 1013.8 hPa 0 mm 4.02 m/s, 18° - -
1777689679 5.56° C 71% 1013.8 hPa 0 mm 3.58 m/s, 8° - -
1777689379 6.11° C 71% 1013.7 hPa 0 mm 4.47 m/s, 23° - -
1777689080 6.11° C 70% 1013.6 hPa 0 mm 4.47 m/s, 18° - -
1777688780 6.11° C 70% 1013.5 hPa 0 mm 1.79 m/s, 25° - -
1777688478 6.11° C 70% 1013.4 hPa 0 mm 2.68 m/s, 18° - -
1777688178 6.11° C 71% 1013.4 hPa 0 mm 2.68 m/s, 18° - -
1777687879 6.11° C 70% 1013.4 hPa 0 mm 4.02 m/s, 42° - -
1777687579 6.11° C 70% 1013.4 hPa 0 mm 4.02 m/s, 3° - -
1777687280 6.11° C 70% 1013.3 hPa 0 mm 4.47 m/s, 13° - -

* Rain latest hour (hover to see other rain measurements)
** Current wind speed in m/s (hover to see current wind gust speed)